Flag for France Weather past 2 weeks in Amsterdam Island, French Southern Territories, France

Now
53 °F

Cool.


Feels Like: 47 °F
Forecast: 49 / 52 °F
Wind: 28 mph from West

Location: Martin De Vivies Ile Amsterdam

Current Time: Jul 23, 2014 at 9:31:43 AM

Latest Report: Jul 23, 2014 at 8:00 AM


Visibility: N/A

Pressure: 29.57 "Hg

Humidity: 82%

Dew point: 48 °F

Location of Amsterdam IslandLocation

Historic Weather in Amsterdam Island — Graph

°F

Amsterdam Island temperature yesterday

Maximum temperature yesterday: 61 °F (at 12:00 PM)
Minimum temperature yesterday: 56 °F (at 6:00 PM)
Average temperature yesterday: 58 °F

Past Weeks' High & Low Weather Summary

 TemperatureHumidityPressure
High61 °F (Jul 10, 11:00 PM)98% (Jul 20, 4:00 PM)30.35 "Hg (Jul 20, 4:00 PM)
Low48 °F (Jul 17, 6:00 AM)54% (Jul 12, 3:00 PM)29.26 "Hg (Jul 11, 2:00 AM)
Average56 °F83%30.02 "Hg
* Reported Jul 8 8:00 AM — Jul 23 8:00 AM, Amsterdam Island, Weather by CustomWeather, © 2014

Note: Actual official high and low records may vary slightly from our data, if they occured in-between our weather recording intervals... More about our weather records

Advertising

Amsterdam Island weather history for previous 24 hours

 ConditionsComfort  
Time TempWeatherWind HumidityBarometerVisibility
8:00 AM
Jul 23
53 °FCool.28 mph82%29.57 "HgN/A
7:00 AM53 °FCool.24 mph92%29.50 "HgN/A
6:00 AM53 °FCool.28 mph95%29.50 "HgN/A
5:00 AM58 °FCool.41 mph86%29.44 "HgN/A
9:00 PM
Jul 22
56 °FCool.31 mph92%29.65 "HgN/A
8:00 PM57 °FCool.29 mph89%29.66 "HgN/A
7:00 PM56 °FCool.28 mph89%29.69 "HgN/A
6:00 PM56 °FCool.25 mph90%29.70 "HgN/A
5:00 PM56 °FCool.26 mph91%29.70 "HgN/A
4:00 PM57 °FCool.24 mph91%29.70 "HgN/A
3:00 PM57 °FCool.22 mph92%29.70 "HgN/A
2:00 PM60 °FCool.20 mph85%29.71 "HgN/A
1:00 PM60 °FCool.18 mph85%29.72 "HgN/A
12:00 PM61 °FCool.17 mph80%29.74 "HgN/A
11:00 AM60 °FCool.21 mph82%29.75 "HgN/A
10:00 AM60 °FCool.20 mph81%29.77 "HgN/A
9:00 AM58 °FCool.18 mph88%29.75 "HgN/A
Weather by CustomWeather, © 2014

See weather overviewHow to use our weather pages